Ankeny, IA

9:13 PM CDT on October 21, 2019 (GMT -0500)
Ankeny Regional

Weather History for KIKV - August, 2019

Change the Weather History Date:

Sunday, August 25, 2019

  Actual Average (KDSM) Record (KDSM)
Temperature  
Mean Temperature 64 °F -  
Max Temperature 69 °F 83 °F 106 °F (1936)
Min Temperature 60 °F 62 °F 44 °F (1934)
Growing Degree Days 14 (Base 50)    
Moisture  
Dew Point 60 °F    
Average Humidity 81    
Maximum Humidity 94    
Minimum Humidity 73    
Precipitation  
Precipitation 0.00 in - - ()
Sea Level Pressure  
Sea Level Pressure 29.97 in    
Wind  
Wind Speed 8 mph ()    
Max Wind Speed 13 mph    
Max Gust Speed 18 mph    
Visibility 10.0 miles    
Events      
Averages and records for this station are not official NWS values.
T = Trace of Precipitation, MM = Missing Value Source: Averaged Metar Reports

Daily Weather History Graph

Daily Weather History Graph

Search for Another Location

Airport or City:

Astronomy

Aug. 25, 2019 Rise Set
Actual Time 6:32 AM CDT 7:59 PM CDT
Civil Twilight 6:03 AM CDT 8:28 PM CDT
Nautical Twilight 5:28 AM CDT 9:03 PM CDT
Astronomical Twilight 4:51 AM CDT 9:39 PM CDT
Moon 1:05 AM CDT (8/25) 4:23 PM CDT (8/25)
Length of Visible Light 14h 24m
Length of Day
13h 26m
Waning Crescent, 29% of the Moon is Illuminated
Aug 25
Waning Crescent
Aug 30
New
Sep 5
First Quarter
Sep 13
Full
Sep 21
Last Quarter

Hourly Weather History & Observations

Time (CDT) Temp. Dew Point Humidity Pressure Visibility Wind Dir Wind Speed Gust Speed Precip Events Conditions
12:15 AM 64.4 °F 57.2 °F 77% 30.10 in 10.0 mi SE 5.8 mph - N/A   Overcast
12:35 AM 64.4 °F 57.2 °F 77% 30.10 in 10.0 mi SE 5.8 mph - N/A   Overcast
12:55 AM 66.2 °F 57.2 °F 73% 30.10 in 10.0 mi SSE 5.8 mph 13.8 mph N/A   Overcast
1:15 AM 64.4 °F 57.2 °F 77% 30.09 in 10.0 mi SE 11.5 mph - N/A   Overcast
1:35 AM 64.4 °F 57.2 °F 77% 30.08 in 10.0 mi SSE 8.1 mph - N/A   Overcast
1:55 AM 64.4 °F 57.2 °F 77% 30.08 in 10.0 mi SE 9.2 mph 15.0 mph N/A   Overcast
2:15 AM 64.4 °F 57.2 °F 77% 30.08 in 10.0 mi SSE 9.2 mph - N/A   Overcast
2:35 AM 64.4 °F 57.2 °F 77% 30.07 in 10.0 mi SE 6.9 mph - N/A   Overcast
2:55 AM 64.4 °F 57.2 °F 77% 30.06 in 10.0 mi SSE 8.1 mph 16.1 mph N/A   Overcast
3:15 AM 64.4 °F 57.2 °F 77% 30.06 in 10.0 mi SSE 9.2 mph - N/A   Overcast
3:35 AM 64.4 °F 57.2 °F 77% 30.05 in 10.0 mi SSE 8.1 mph 13.8 mph N/A   Overcast
3:55 AM 64.4 °F 59.0 °F 83% 30.04 in 10.0 mi SE 6.9 mph - N/A   Mostly Cloudy
4:15 AM 62.6 °F 59.0 °F 88% 30.04 in 10.0 mi SE 5.8 mph - N/A   Overcast
4:35 AM 62.6 °F 59.0 °F 88% 30.05 in 10.0 mi SSE 6.9 mph - N/A   Overcast
4:55 AM 62.6 °F 59.0 °F 88% 30.04 in 10.0 mi SE 8.1 mph - N/A   Overcast
5:15 AM 62.6 °F 59.0 °F 88% 30.03 in 10.0 mi East 4.6 mph - N/A   Overcast
5:35 AM 60.8 °F 59.0 °F 94% 30.02 in 10.0 mi East 5.8 mph - N/A   Overcast
5:55 AM 60.8 °F 59.0 °F 94% 30.02 in 10.0 mi East 6.9 mph - N/A   Scattered Clouds
6:15 AM 60.8 °F 59.0 °F 94% 30.02 in 10.0 mi East 6.9 mph - N/A   Mostly Cloudy
6:35 AM 60.8 °F 59.0 °F 94% 30.02 in 10.0 mi ESE 8.1 mph - N/A   Overcast
6:55 AM 60.8 °F 59.0 °F 94% 30.02 in 10.0 mi ESE 5.8 mph - N/A   Overcast
7:15 AM 60.8 °F 57.2 °F 88% 30.02 in 10.0 mi ESE 6.9 mph - N/A   Overcast
7:35 AM 60.8 °F 57.2 °F 88% 30.01 in 10.0 mi ESE 10.4 mph - N/A   Overcast
7:55 AM 62.6 °F 59.0 °F 88% 30.01 in 10.0 mi East 10.4 mph - N/A   Overcast
8:15 AM 62.6 °F 59.0 °F 88% 30.02 in 10.0 mi ESE 6.9 mph - N/A   Overcast
8:35 AM 62.6 °F 57.2 °F 82% 30.01 in 10.0 mi ESE 6.9 mph - N/A   Overcast
8:55 AM 64.4 °F 59.0 °F 83% 30.00 in 10.0 mi ESE 10.4 mph - N/A   Overcast
9:15 AM 64.4 °F 59.0 °F 83% 30.00 in 10.0 mi SE 6.9 mph 13.8 mph N/A   Partly Cloudy
9:35 AM 64.4 °F 59.0 °F 83% 30.01 in 10.0 mi SE 9.2 mph 15.0 mph N/A   Clear
9:55 AM 64.4 °F 59.0 °F 83% 30.01 in 10.0 mi ESE 6.9 mph - N/A   Clear
10:15 AM 66.2 °F 59.0 °F 78% 30.01 in 10.0 mi SE 9.2 mph - N/A   Clear
10:35 AM 66.2 °F 59.0 °F 78% 30.00 in 10.0 mi SE 12.7 mph - N/A   Clear
10:55 AM 68.0 °F 60.8 °F 78% 30.00 in 10.0 mi SE 8.1 mph - N/A   Partly Cloudy
11:15 AM 68.0 °F 60.8 °F 78% 30.00 in 10.0 mi SE 10.4 mph - N/A   Mostly Cloudy
11:35 AM 68.0 °F 60.8 °F 78% 30.00 in 10.0 mi SE 11.5 mph - N/A   Overcast
11:55 AM 68.0 °F 60.8 °F 78% 29.99 in 10.0 mi SE 10.4 mph - N/A   Overcast
12:15 PM 69.8 °F 60.8 °F 73% 29.98 in 10.0 mi SE 9.2 mph - N/A   Overcast
12:35 PM 69.8 °F 60.8 °F 73% 29.97 in 10.0 mi SE 10.4 mph - N/A   Overcast
12:55 PM 69.8 °F 60.8 °F 73% 29.95 in 10.0 mi ESE 11.5 mph - N/A   Mostly Cloudy
1:15 PM 69.8 °F 60.8 °F 73% 29.95 in 10.0 mi East 8.1 mph 17.3 mph N/A   Mostly Cloudy
1:35 PM 69.8 °F 62.6 °F 78% 29.95 in 10.0 mi ESE 12.7 mph - N/A   Mostly Cloudy
1:55 PM 69.8 °F 62.6 °F 78% 29.94 in 10.0 mi ESE 12.7 mph - N/A   Scattered Clouds
2:15 PM 69.8 °F 62.6 °F 78% 29.94 in 10.0 mi ESE 9.2 mph - N/A   Mostly Cloudy
2:35 PM 69.8 °F 62.6 °F 78% 29.94 in 9.0 mi SE 10.4 mph - N/A   Overcast
2:55 PM 69.8 °F 62.6 °F 78% 29.94 in 10.0 mi SE 11.5 mph - N/A   Overcast
3:15 PM 69.8 °F 62.6 °F 78% 29.93 in 9.0 mi SE 10.4 mph - N/A   Overcast
3:55 PM 69.8 °F 62.6 °F 78% 29.92 in 10.0 mi ESE 8.1 mph 15.0 mph N/A   Overcast
4:15 PM 69.8 °F 62.6 °F 78% 29.92 in 10.0 mi ESE 10.4 mph - N/A   Overcast
4:55 PM 69.8 °F 60.8 °F 73% 29.91 in 10.0 mi ESE 11.5 mph 18.4 mph N/A   Mostly Cloudy
5:15 PM 68.0 °F 60.8 °F 78% 29.91 in 10.0 mi SE 10.4 mph 18.4 mph N/A   Overcast
5:35 PM 68.0 °F 60.8 °F 78% 29.91 in 10.0 mi SE 9.2 mph - N/A   Overcast
5:55 PM 68.0 °F 62.6 °F 83% 29.90 in 10.0 mi ESE 5.8 mph 13.8 mph N/A   Overcast
6:15 PM 68.0 °F 62.6 °F 83% 29.90 in 10.0 mi SE 8.1 mph - N/A   Overcast
6:35 PM 68.0 °F 60.8 °F 78% 29.90 in 10.0 mi SE 9.2 mph - N/A   Overcast
6:55 PM 68.0 °F 60.8 °F 78% 29.90 in 10.0 mi ESE 6.9 mph - N/A   Overcast
7:15 PM 68.0 °F 60.8 °F 78% 29.89 in 10.0 mi East 5.8 mph - N/A   Overcast
7:35 PM 68.0 °F 60.8 °F 78% 29.89 in 10.0 mi East 5.8 mph - N/A   Overcast
7:55 PM 68.0 °F 62.6 °F 83% 29.89 in 10.0 mi ESE 4.6 mph - N/A   Overcast
8:15 PM 68.0 °F 60.8 °F 78% 29.89 in 10.0 mi SE 9.2 mph - N/A   Overcast
8:35 PM 68.0 °F 60.8 °F 78% 29.89 in 10.0 mi SE 9.2 mph - N/A   Overcast
8:55 PM 68.0 °F 60.8 °F 78% 29.89 in 10.0 mi ESE 8.1 mph 17.3 mph N/A   Overcast
9:15 PM 68.0 °F 60.8 °F 78% 29.89 in 10.0 mi ESE 9.2 mph - N/A   Overcast
9:35 PM 68.0 °F 60.8 °F 78% 29.90 in 10.0 mi ESE 6.9 mph - N/A   Overcast
9:55 PM 66.2 °F 60.8 °F 83% 29.91 in 10.0 mi ESE 5.8 mph - N/A   Overcast
10:15 PM 66.2 °F 60.8 °F 83% 29.90 in 10.0 mi ESE 9.2 mph - N/A   Overcast
10:35 PM 66.2 °F 60.8 °F 83% 29.89 in 10.0 mi ESE 9.2 mph - N/A   Overcast
10:55 PM 66.2 °F 60.8 °F 83% 29.88 in 10.0 mi ESE 9.2 mph - N/A   Overcast
11:15 PM 64.4 °F 60.8 °F 88% 29.87 in - ESE 9.2 mph - N/A   Scattered Clouds
11:35 PM 64.4 °F 60.8 °F 88% 29.87 in 10.0 mi East 4.6 mph 12.7 mph N/A   Scattered Clouds
11:55 PM 64.4 °F 60.8 °F 88% 29.86 in 10.0 mi ESE 6.9 mph 18.4 mph N/A   Overcast